This is the latest recevied weather packets stored in our database for station/object K6LOT-13. If no packets are shown the sender has not sent any weather packets the latest 10 day(s).
| Time | Temp. | Humidity | Pressure | Rain* | Wind** | Luminosity | Snow |
|---|---|---|---|---|---|---|---|
| 1788669717 | 25.56° C | 41% | 1014.5 hPa | 0 mm | - | - | - |
| 1788669681 | 25° C | 41% | 1014.5 hPa | 0 mm | - | - | - |
| 1788669069 | 25.56° C | 41% | 1014.5 hPa | 0 mm | - | - | - |
| 1788668503 | 25.56° C | 41% | 1014.5 hPa | 0 mm | - | - | - |
| 1788668482 | 25.56° C | 41% | 1014.6 hPa | 0 mm | - | - | - |
| 1788668013 | 25.56° C | 41% | 1014.5 hPa | 0 mm | - | - | - |
| 1788667245 | 25.56° C | 41% | 1014.3 hPa | 0 mm | - | - | - |
| 1788666948 | 26.11° C | 41% | 1014.3 hPa | 0 mm | - | - | - |
| 1788666918 | 26.11° C | 40% | 1014.2 hPa | 0 mm | - | - | - |
| 1788666302 | 26.11° C | 40% | 1014.2 hPa | 0 mm | - | - | - |
| 1788665996 | 26.11° C | 40% | 1014.3 hPa | 0 mm | - | - | - |
| 1788665685 | 26.11° C | 39% | 1014.3 hPa | 0 mm | - | - | - |
| 1788665463 | 26.67° C | 39% | 1014.1 hPa | 0 mm | - | - | - |
| 1788665069 | 26.67° C | 39% | 1014 hPa | 0 mm | - | - | - |
| 1788665068 | 26.67° C | 38% | 1014 hPa | 0 mm | - | - | - |
| 1788664456 | 26.67° C | 38% | 1013.9 hPa | 0 mm | - | - | - |
| 1788664150 | 26.67° C | 38% | 1013.9 hPa | 0 mm | - | - | - |
| 1788663845 | 27.22° C | 38% | 1013.8 hPa | 0 mm | - | - | - |
| 1788663229 | 27.22° C | 38% | 1013.8 hPa | 0 mm | - | - | - |
| 1788662922 | 27.22° C | 38% | 1013.9 hPa | 0 mm | - | - | - |
| 1788662616 | 27.22° C | 38% | 1013.8 hPa | 0 mm | - | - | - |
| 1788661694 | 27.78° C | 40% | 1013.8 hPa | 0 mm | - | - | - |
| 1788661383 | 27.78° C | 40% | 1013.8 hPa | 0 mm | - | - | - |
| 1788661112 | 28.33° C | 40% | 1013.7 hPa | 0 mm | - | - | - |
| 1788661077 | 28.33° C | 40% | 1013.8 hPa | 0 mm | - | - | - |
* Rain latest hour (hover to see other rain measurements)
** Current wind speed in m/s (hover to see current wind gust speed)